Wetbulb
61.43 63.67 66.52 64.21 67.36 70.79 67.06 65.73 65.96 62.57 61.21 58.95 58.15 57.67 57.82 59.01 59.55 57.19 56.20 58.84 60.45 61.23 61.08 61.47 61.43 60.88 62.09 62.77 61.60 62.92 62.36 61.32
62.33 64.14 67.20 68.76 69.60 65.90 64.78 64.35 60.64 60.14 59.54 59.08 59.29 57.06 58.80 57.33 59.02 56.30 55.99 56.53 57.58 58.02 59.51 58.34 59.62 59.36 59.98 61.82 61.24 59.75 60.69 60.50
60.87 61.29 61.51 62.32 63.61 63.35 61.27 59.24 59.87 60.53 61.71 62.34 62.42 57.83 57.89 57.35 56.44 54.17 53.71 54.66 55.67 57.01 56.91 56.73 56.64 57.56 58.64 59.41 59.76 58.41 59.22 60.59
59.40 58.48 58.77 60.05 59.35 58.78 58.33 57.83 57.41 56.99 60.81 61.39 59.40 58.03 55.84 55.05 54.04 54.01 54.70 55.47 53.82 52.81 53.40 53.73 55.11 55.66 55.11 56.39 57.10 57.08 55.19 58.80
58.88 57.59 57.49 58.13 58.03 58.45 58.15 57.47 57.26 57.94 61.43 62.16 61.63 60.66 57.12 57.72 57.79 57.55 55.43 52.90 52.69 52.89 53.81 53.41 54.05 54.69 55.25 56.25 56.17 56.25 56.39 55.34
58.55 57.56 57.94 58.98 59.00 59.44 59.55 58.49 57.99 59.56 64.10 64.65 63.31 59.81 61.77 61.52 60.41 57.91 55.42 55.85 55.04 54.78 55.26 55.34 55.38 55.04 54.66 54.93 54.61 54.32 54.55 54.66
60.03 60.33 61.20 61.60 61.02 61.53 61.84 60.34 62.40 64.41 64.52 64.30 63.25 61.79 60.51 59.41 58.74 57.83 57.21 57.26 56.65 56.49 55.79 56.28 56.25 55.54 54.49 54.69 54.56 53.60 53.57 53.14
58.91 59.93 60.97 62.09 62.45 62.21 62.95 63.59 63.06 64.01 63.79 63.48 62.35 61.63 60.70 59.11 58.92 58.93 57.98 57.80 57.61 57.36 56.81 56.75 56.88 55.81 55.17 55.06 54.21 53.07 53.10 51.79
56.77 58.16 59.87 61.55 62.59 63.24 63.06 62.96 62.30 63.12 63.18 62.59 62.65 61.50 61.78 61.34 60.23 60.64 60.31 60.23 59.16 57.69 57.18 56.72 55.81 55.27 55.15 54.70 54.26 53.53 52.91 52.87
55.62 57.58 58.83 60.14 61.44 62.43 62.95 62.58 62.03 62.28 62.34 62.49 61.73 62.15 60.98 60.46 59.81 60.71 60.78 60.18 58.42 57.40 56.86 56.19 55.40 54.48 53.72 53.47 53.13 52.50 51.86 51.60
54.89 56.16 57.67 58.98 60.49 61.42 62.29 62.24 61.16 60.58 61.13 61.89 61.35 61.00 60.33 60.35 60.37 58.87 58.69 59.11 57.62 56.24 56.03 55.16 55.07 54.25 53.84 53.02 52.24 51.12 50.24 50.91
53.39 53.97 56.02 57.85 59.12 59.76 60.39 60.53 60.34 60.46 59.38 59.20 59.16 59.15 58.64 58.53 58.16 57.86 57.31 57.02 56.08 54.99 54.70 54.62 54.16 53.59 53.29 52.25 51.62 50.28 48.83 48.76
51.99 51.99 52.55 53.44 54.51 56.05 57.47 58.68 58.95 59.17 58.50 57.83 57.43 57.54 57.25 57.20 56.95 56.42 56.20 56.01 55.65 54.92 54.73 53.91 53.21 52.86 52.36 51.24 49.83 46.77 47.27 45.75
51.34 51.35 51.27 51.23 51.41 51.78 53.10 55.87 57.04 57.74 57.00 56.65 56.21 55.92 55.81 55.52 55.04 54.84 54.26 53.85 53.89 53.46 52.93 52.49 51.98 51.48 50.25 49.69 48.13 47.01 44.68 43.40
50.93 51.15 51.06 51.07 50.23 50.79 52.24 54.46 55.98 55.69 55.24 55.14 54.41 54.18 53.63 54.01 53.54 53.27 52.68 52.78 52.40 52.14 51.84 51.28 50.95 50.37 49.17 48.48 46.27 42.90 42.25 40.78
49.84 50.30 49.98 49.96 50.48 51.26 52.30 53.42 53.40 53.65 52.83 52.45 51.98 52.01 51.45 51.27 51.38 51.48 51.20 51.22 50.96 50.60 49.87 49.66 49.47 48.19 46.54 45.75 44.25 42.95 40.87 37.80
49.17 47.80 48.52 48.48 49.16 51.00 50.53 50.77 50.36 51.01 50.41 49.76 49.98 49.87 49.34 49.44 49.53 48.24 48.32 48.17 48.40 48.09 47.72 47.56 46.72 45.41 36.94 37.69 41.22 41.95 38.01 36.94
47.35 48.36 48.81 49.23 49.49 49.72 49.93 49.62 49.74 49.82 49.61 48.79 48.43 48.10 47.54 46.74 46.32 45.34 44.82 45.45 46.27 44.44 43.93 44.55 42.88 42.44 35.70 36.26 36.07 38.08 36.43 37.92
48.23 49.27 49.55 49.54 49.73 48.41 46.84 46.66 45.61 45.31 45.03 44.26 45.24 45.15 43.80 43.65 40.92 37.82 38.07 39.42 36.73 36.55 36.73 37.46 37.10 38.57 35.97 35.21 34.86 36.84 37.28 37.03
MSLP
1011.05 1010.88 1010.47 1010.21 1010.09 1011.15 1013.29 1014.57 1015.06 1015.60 1016.42 1017.43 1018.08 1018.37 1018.93 1019.69 1020.02 1020.05 1019.73 1020.97 1020.93 1019.57 1020.08 1020.21 1019.93 1019.80 1019.62 1019.53 1019.85 1020.23 1020.43 1020.85
1011.43 1011.86 1011.44 1011.01 1011.32 1012.63 1013.72 1014.50 1015.30 1015.70 1016.57 1017.26 1017.97 1018.50 1018.71 1020.28 1020.40 1020.02 1020.18 1020.60 1020.48 1020.37 1020.29 1020.81 1020.45 1020.27 1019.92 1020.00 1019.84 1020.28 1020.51 1021.35
1012.14 1012.94 1013.15 1013.19 1013.39 1013.87 1014.49 1015.12 1015.50 1015.95 1016.25 1017.11 1017.60 1018.35 1017.87 1019.69 1019.77 1020.25 1020.20 1020.41 1019.99 1019.84 1020.63 1021.11 1020.92 1020.29 1020.05 1020.12 1020.09 1019.99 1019.96 1020.80
1012.70 1013.65 1014.05 1014.33 1014.60 1015.03 1015.46 1015.93 1016.08 1016.28 1016.44 1017.29 1017.83 1018.39 1019.15 1019.76 1019.70 1019.71 1019.83 1019.59 1019.87 1020.03 1020.33 1020.46 1020.91 1020.66 1020.37 1020.50 1020.61 1020.24 1020.06 1020.33
1013.25 1014.19 1014.63 1015.03 1015.38 1015.73 1015.91 1016.33 1016.57 1016.69 1016.69 1016.87 1017.07 1017.24 1018.09 1018.71 1019.09 1019.26 1019.71 1019.99 1019.88 1020.04 1019.85 1020.23 1020.75 1020.62 1020.57 1020.31 1020.58 1020.67 1020.43 1019.71
1013.30 1014.16 1014.58 1014.96 1015.37 1015.59 1015.93 1016.36 1016.59 1016.68 1016.47 1016.40 1016.67 1017.20 1017.19 1017.72 1018.46 1018.93 1019.41 1019.74 1020.15 1019.89 1019.86 1019.95 1020.33 1020.44 1020.64 1020.93 1020.97 1021.02 1020.84 1020.45
1013.06 1013.65 1013.90 1014.27 1014.81 1015.16 1015.44 1015.84 1015.93 1016.10 1016.28 1016.47 1016.60 1016.83 1017.01 1017.27 1017.62 1018.12 1018.65 1018.87 1019.11 1019.32 1019.65 1019.91 1020.11 1020.47 1020.66 1020.78 1020.85 1020.96 1021.12 1021.07
1012.70 1012.95 1013.41 1013.94 1014.49 1015.09 1015.37 1015.34 1015.17 1015.63 1016.06 1016.18 1016.31 1016.65 1017.05 1017.07 1017.23 1017.29 1017.67 1018.04 1018.27 1018.77 1019.10 1019.44 1019.73 1020.25 1020.52 1020.76 1020.96 1021.20 1021.22 1020.98
1012.73 1012.96 1013.28 1013.65 1014.13 1014.75 1015.06 1015.12 1015.23 1015.58 1015.90 1016.06 1016.22 1016.59 1016.72 1016.95 1017.07 1017.23 1017.43 1017.67 1018.02 1018.45 1018.93 1019.33 1019.73 1020.21 1020.61 1020.85 1020.86 1021.14 1021.23 1021.09
1012.58 1012.87 1013.15 1013.47 1013.70 1014.39 1014.80 1014.85 1015.02 1015.35 1015.71 1015.95 1016.30 1016.71 1017.05 1017.25 1017.59 1017.81 1017.80 1018.11 1018.28 1018.57 1018.77 1019.08 1019.57 1020.07 1020.49 1020.75 1020.83 1021.01 1021.27 1021.34
1012.42 1012.66 1013.13 1013.42 1013.71 1014.11 1014.79 1015.18 1015.20 1015.42 1015.93 1016.19 1016.43 1016.58 1017.01 1017.41 1017.66 1017.90 1018.11 1018.38 1018.61 1018.78 1018.97 1019.22 1019.26 1019.70 1020.17 1020.44 1020.55 1020.87 1021.06 1021.22
1012.06 1012.45 1012.96 1013.10 1013.41 1013.92 1014.57 1015.13 1015.33 1015.57 1016.06 1016.20 1016.27 1016.45 1016.91 1017.14 1017.41 1017.80 1018.01 1018.20 1018.41 1018.62 1018.91 1019.18 1019.29 1019.53 1019.90 1020.31 1020.33 1020.55 1020.88 1021.06
1011.53 1012.00 1012.52 1012.81 1013.05 1013.51 1014.19 1014.69 1014.91 1015.13 1015.47 1015.80 1016.17 1016.65 1017.04 1017.03 1016.99 1017.41 1017.90 1018.02 1018.13 1018.26 1018.55 1018.88 1019.18 1019.41 1019.79 1020.19 1020.43 1021.00 1020.97 1021.21
1011.43 1011.85 1012.14 1012.45 1012.94 1013.39 1013.93 1014.42 1014.71 1015.04 1015.26 1015.56 1016.01 1016.49 1016.77 1016.94 1016.97 1017.01 1017.40 1017.59 1017.82 1018.03 1018.47 1018.77 1018.91 1019.32 1019.72 1020.03 1020.50 1020.87 1021.28 1021.63
1010.96 1011.31 1011.84 1012.38 1013.01 1013.44 1013.76 1014.38 1014.92 1015.18 1015.29 1015.36 1015.78 1016.22 1016.77 1017.35 1017.52 1017.63 1017.58 1017.52 1017.87 1018.03 1018.15 1018.59 1018.96 1019.28 1019.58 1019.89 1020.43 1021.09 1021.39 1021.85
1010.51 1011.25 1011.90 1012.57 1013.04 1013.67 1014.00 1014.62 1015.19 1015.49 1015.73 1015.98 1016.40 1016.85 1017.40 1017.91 1018.07 1018.16 1018.27 1018.07 1017.96 1018.16 1018.29 1018.58 1018.92 1019.31 1019.76 1020.23 1020.67 1020.96 1021.45 1022.13
1010.48 1011.50 1012.47 1013.16 1013.48 1013.89 1014.74 1015.45 1015.96 1016.11 1016.49 1016.85 1017.02 1017.24 1017.51 1017.92 1018.21 1018.41 1017.99 1018.48 1018.51 1018.55 1018.66 1018.75 1019.08 1019.58 1020.23 1020.57 1020.76 1021.19 1021.97 1022.34
1010.85 1011.82 1012.75 1013.48 1014.03 1014.68 1015.28 1015.97 1016.31 1016.56 1016.84 1017.14 1017.13 1017.37 1017.71 1017.91 1018.41 1018.67 1018.27 1018.44 1018.89 1019.27 1019.56 1019.49 1019.84 1020.19 1020.88 1021.17 1021.46 1021.84 1022.24 1022.35
1011.22 1012.21 1013.13 1013.91 1014.61 1015.48 1016.18 1016.44 1016.88 1017.47 1017.63 1017.92 1018.08 1018.17 1018.71 1018.83 1018.98 1019.31 1019.68 1019.62 1019.67 1020.33 1020.54 1020.60 1020.68 1020.99 1021.56 1021.77 1022.00 1022.20 1022.41 1022.70
Wind_Speed
12 13 11 6 4 6 14 10 11 11 9 10 7 7 6 6 4 6 10 3 6 4 4 2 1 2 3 3 4 2 2 6
11 13 13 9 9 14 13 10 10 9 8 7 7 6 8 5 3 7 6 6 3 4 2 1 1 2 2 3 4 5 4 7
11 13 11 10 9 9 10 10 9 6 6 7 6 5 7 6 7 7 8 6 7 7 4 1 3 3 4 5 5 5 5 8
10 11 10 9 9 9 9 10 9 7 10 9 9 8 6 5 6 7 9 10 7 5 7 5 3 2 3 3 4 7 6 8
10 9 9 8 8 8 10 10 10 8 10 11 12 8 8 5 6 5 4 2 5 6 6 5 2 2 3 2 4 6 7 8
9 7 7 7 7 7 10 11 10 11 11 9 7 6 5 6 5 7 5 4 4 4 5 5 3 3 3 4 4 5 6 8
9 9 9 10 9 9 12 12 12 10 8 7 7 7 6 7 7 7 7 6 7 6 5 3 2 2 3 4 4 5 5 6
10 11 10 10 11 11 10 11 11 10 8 8 6 5 5 4 5 4 5 4 4 6 5 3 3 4 3 3 4 5 5 5
10 10 10 10 10 9 9 9 9 8 8 7 6 5 3 3 3 2 2 1 3 5 4 4 3 3 3 3 3 4 4 4
10 9 8 8 8 8 8 8 7 7 6 4 3 2 3 3 2 2 2 1 1 4 5 5 4 4 5 4 4 4 3 3
9 8 8 7 7 7 6 6 5 4 3 3 2 3 3 3 2 3 2 2 3 4 4 5 5 6 6 6 5 4 5 3
11 8 7 8 7 6 5 6 6 6 4 4 4 4 5 5 4 4 4 3 4 5 5 6 6 7 7 7 6 5 5 4
12 9 8 7 6 5 7 7 9 8 7 6 6 6 6 6 6 6 4 4 5 5 6 6 6 7 7 7 6 5 5 5
12 10 8 5 5 5 7 7 8 8 8 8 8 7 7 7 7 6 6 5 5 5 5 6 6 7 8 8 8 6 5 5
15 12 8 6 5 6 6 6 6 7 7 8 8 7 5 2 3 3 3 3 3 4 5 5 6 7 7 7 6 7 6 5
15 9 6 6 3 4 5 6 6 6 6 6 6 6 5 3 2 1 1 0 2 4 5 5 5 5 5 8 9 7 7 6
11 7 4 3 3 4 5 5 5 5 6 6 5 5 5 4 3 4 3 2 2 4 4 5 5 3 7 5 7 7 7 4
9 7 6 5 7 6 7 7 5 5 6 6 6 6 5 5 5 3 5 2 0 1 1 1 2 3 8 10 10 7 6 6
9 8 8 8 8 7 7 6 5 3 3 3 1 4 4 4 4 4 3 2 3 1 1 2 4 4 9 11 9 6 4 4
Wind_Direction
359 354 344 321 239 169 132 154 150 120 108 106 105 104 93 94 99 108 113 193 320 55 54 88 162 164 140 148 131 100 168 122
20 17 17 48 61 93 135 137 126 133 127 126 127 119 98 96 109 103 117 140 79 48 67 105 249 209 123 173 147 168 162 140
38 34 43 57 82 103 104 114 123 119 121 123 130 153 111 148 153 148 150 160 148 135 117 298 262 195 189 190 202 191 203 193
46 41 42 61 81 98 106 107 104 103 121 123 111 107 103 160 185 172 185 159 149 145 151 139 266 260 213 222 233 225 216 208
57 53 55 63 84 107 119 126 127 135 147 141 150 172 173 198 183 166 157 141 161 174 122 134 204 263 282 225 232 254 247 222
82 88 95 100 117 128 135 137 144 162 172 175 166 157 178 144 150 148 148 163 207 126 132 140 175 206 216 255 238 240 254 260
106 116 129 122 129 143 145 154 158 160 166 161 177 158 169 167 159 167 176 173 172 155 143 142 149 241 240 230 217 232 254 270
114 116 113 118 127 139 154 165 160 164 172 177 175 183 182 175 172 177 159 161 161 155 162 156 195 212 222 238 228 246 244 235
123 119 122 127 134 147 159 169 163 176 185 189 185 190 198 219 196 188 186 186 146 138 170 191 204 223 229 233 256 274 280 263
148 144 143 145 150 163 183 194 197 192 202 192 184 198 253 283 279 277 261 252 185 190 193 195 201 215 224 223 245 258 269 287
164 167 168 169 175 183 202 228 245 227 227 223 231 203 203 218 239 254 267 269 230 216 217 231 205 209 217 218 214 207 236 230
173 171 181 187 185 198 205 230 226 224 213 205 186 168 176 176 182 186 191 188 205 217 227 229 225 219 218 225 225 216 228 224
180 177 181 187 188 204 217 219 213 203 192 176 156 151 174 172 165 163 171 198 188 218 211 220 229 230 223 233 223 225 223 211
192 201 208 213 233 243 243 223 218 196 180 164 160 166 178 180 165 159 169 178 190 193 215 225 218 215 214 212 207 202 188 190
209 209 219 240 254 247 228 194 196 183 175 170 164 164 168 178 147 151 157 153 220 223 219 230 229 221 213 203 191 175 172 161
213 224 241 247 243 208 188 163 168 177 160 147 128 122 132 151 143 125 85 345 246 250 237 222 215 208 198 189 192 176 158 151
215 208 219 211 155 135 122 135 135 144 138 130 126 133 156 165 174 169 103 359 293 263 239 218 203 182 126 159 166 164 158 174
198 182 171 148 118 133 127 122 131 137 150 159 165 168 171 167 173 158 92 154 305 357 308 191 156 159 147 141 133 148 163 190
171 161 143 127 118 117 145 145 145 165 157 138 144 142 146 141 118 103 118 99 96 105 177 129 148 158 160 146 131 141 150 147